Location: The Saddle
(36.8333°N, 80.3417°W)
Time: 01:08:12
(UTC-05:00)

A-11 Canister half - Pass Details

Date: 13 December 2023
Orbit: 1526 x 1682 km, 47.3° (Epoch: 01 March)

Event Time Altitude Azimuth Distance (km) Brightness Sun altitude
Rises 18:06:37 0° 256° (WSW) 4,900 13.7 -11.9°
Reaches altitude 10° 18:09:50 10° 261° (W) 3,925 12.6 -12.6°
Maximum altitude 18:19:48 59° 339° (NNW) 1,899 9.5 -14.4°
Enters shadow 18:27:41 18° 54° (NE) 3,322 10.2 -15.9°
